Temperature
15 15 15 15 14 14 14 14 13 13 13 12 12 12 12 12 12 12 12 12 12 12 12 12 12 12 12 12 12 12 12 12 12 13 12 12 12 12 12 12 13 13 13
16 15 15 15 14 14 14 14 13 13 13 12 12 12 12 11 11 11 11 11 11 11 11 11 11 11 11 12 12 11 12 12 13 13 12 12 11 11 11 11 11 11 12
16 16 15 15 14 14 14 14 13 13 13 12 12 12 11 11 11 11 11 11 11 11 11 11 11 11 12 12 12 11 11 12 12 12 12 12 11 10 10 10 11 11 11
17 16 15 15 15 14 14 14 13 13 12 12 12 11 11 11 11 11 11 11 11 11 11 11 11 12 12 12 12 11 12 12 12 12 12 11 11 10 10 10 10 10 10
17 16 15 15 15 14 14 14 13 13 12 12 12 11 11 11 11 11 11 11 11 11 11 11 11 12 12 12 12 11 12 12 12 12 11 11 10 9 9 9 10 10 10
17 16 15 15 14 14 14 14 13 13 12 12 11 11 11 11 11 11 11 11 11 11 11 11 11 11 11 11 11 11 11 11 11 11 11 11 10 10 9 9 9 9 9
17 16 16 15 14 14 14 13 13 13 12 11 11 11 11 11 11 11 11 11 11 11 11 11 11 11 11 11 11 11 11 11 11 11 11 10 10 9 9 9 9 9 9
18 16 16 15 14 14 14 13 13 12 12 11 11 11 11 11 11 11 11 11 11 11 11 11 11 11 11 11 11 11 10 10 10 10 10 10 9 9 8 9 9 8 9
17 17 16 15 15 14 14 13 13 13 12 12 11 11 11 11 11 11 11 11 11 11 11 11 10 10 10 10 10 10 10 9 9 9 9 9 9 8 8 8 8 8 8
17 16 16 15 15 14 14 13 13 12 12 12 11 11 11 11 11 11 11 11 11 10 10 10 10 10 10 10 10 9 9 9 9 9 9 9 8 8 8 8 8 8 8
16 16 16 15 15 14 14 13 13 12 12 12 12 11 11 11 10 10 10 10 10 10 10 10 9 9 9 9 9 9 9 9 9 8 8 8 8 8 8 8 8 8 8
17 17 16 16 15 15 14 13 13 12 12 12 12 11 11 11 10 10 10 10 10 10 10 9 9 9 9 9 9 9 8 8 8 8 8 8 8 8 8 7 7 7 7
19 17 17 16 15 15 14 14 13 12 12 12 11 11 11 10 10 10 10 9 9 9 9 9 9 9 9 9 8 8 8 8 8 8 8 8 8 8 7 7 7 7 7
18 18 17 16 15 15 14 14 13 13 12 12 11 11 11 10 10 10 10 9 9 9 9 9 9 9 8 8 8 8 8 8 8 8 8 8 8 7 7 7 7 7 6
18 18 17 16 16 15 14 14 13 13 12 12 11 11 10 10 10 10 9 9 9 9 9 9 9 9 9 8 8 8 8 8 8 8 8 8 8 7 7 7 6 6 6
18 18 17 16 16 15 15 14 14 13 12 12 11 11 10 10 10 10 9 9 9 9 9 9 9 9 9 9 9 9 8 8 8 8 8 8 7 7 7 7 6 6 6
18 18 17 16 16 15 15 14 13 13 12 12 11 11 10 10 10 10 10 9 9 9 9 9 9 9 9 9 9 9 9 9 8 8 8 8 7 7 7 7 6 6 5
18 18 17 16 16 15 14 14 13 13 12 12 11 11 11 10 10 10 10 9 9 9 9 9 9 9 9 9 9 9 9 9 8 8 8 7 7 7 7 6 6 6 5
19 18 17 16 16 15 14 14 13 13 12 12 11 11 11 10 10 10 10 9 9 9 9 9 9 9 9 9 9 9 9 9 8 8 8 7 7 7 6 6 6 6 5
19 18 18 17 16 15 14 13 12 12 12 11 11 11 11 10 10 10 10 10 9 9 9 9 9 9 9 9 9 9 9 9 8 8 7 7 7 6 6 6 6 5 5
19 18 18 17 16 15 14 13 12 12 12 11 11 11 11 10 10 10 10 10 9 9 9 9 9 9 9 9 9 9 9 8 8 7 7 7 6 6 6 5 5 5 5
19 19 18 17 16 15 15 14 13 12 12 11 11 11 10 10 10 10 10 10 9 9 9 9 9 9 9 9 9 8 8 8 7 7 7 7 6 6 5 5 5 5 4
19 19 18 17 17 16 15 14 12 12 11 11 11 11 10 10 10 10 10 10 9 9 9 9 9 9 9 8 8 8 8 7 7 7 7 6 6 5 5 5 5 4 4
19 19 18 17 17 16 15 14 13 12 12 11 11 11 10 10 10 10 10 9 9 9 9 9 9 9 8 8 8 8 7 7 6 6 6 6 6 5 5 5 4 4 4
19 18 18 17 16 15 14 14 13 12 12 12 11 11 10 10 10 10 10 9 9 9 9 9 9 9 8 8 8 7 7 6 6 5 5 6 6 5 5 4 4 4 3
18 17 17 16 16 15 14 14 13 13 12 11 11 11 10 10 10 10 9 9 9 9 9 9 9 8 8 8 7 7 7 6 6 5 4 5 5 5 5 4 4 3 3
Wind_Speed
7 14 19 18 17 17 16 16 16 15 15 15 14 14 14 14 14 14 15 15 15 16 16 16 16 16 16 16 16 16 17 17 18 18 18 18 18 18 17 17 16 15 18
11 18 20 19 18 18 17 17 17 16 15 15 15 14 14 14 14 14 14 14 15 15 15 15 15 15 15 15 15 15 15 16 17 17 17 16 16 16 16 16 15 14 16
14 18 20 20 19 18 18 17 17 16 15 14 14 14 14 14 14 14 14 14 14 14 14 15 15 15 15 14 14 14 15 16 16 16 15 15 13 14 14 14 14 14 14
18 18 19 21 20 19 18 18 17 16 15 14 14 13 13 13 13 13 13 14 14 14 14 14 14 14 14 13 13 13 14 14 15 14 13 14 12 12 13 12 12 12 12
16 18 20 21 21 19 19 18 17 16 15 14 14 13 13 13 13 13 13 13 13 13 13 13 13 13 12 12 12 12 13 13 13 12 12 12 12 10 11 11 10 10 10
13 18 21 22 21 20 19 19 18 17 16 15 14 13 12 12 12 12 12 12 12 12 12 11 11 11 11 10 10 10 10 10 10 10 9 9 10 10 10 9 9 9 8
13 18 21 22 21 21 20 19 18 17 16 15 14 13 12 12 12 11 11 11 10 10 10 10 10 9 9 9 9 9 9 9 9 7 6 6 7 8 9 8 8 8 8
16 18 20 22 22 21 20 19 18 17 16 15 14 13 13 12 11 11 10 9 9 8 8 8 8 7 7 7 7 8 8 7 6 5 3 3 6 8 8 8 7 7 7
16 16 17 20 21 21 20 19 18 17 17 15 14 13 12 12 11 10 9 8 7 6 6 6 5 5 5 6 6 7 7 7 5 2 1 1 5 8 8 8 8 8 8
11 12 13 16 18 19 19 20 19 18 17 16 14 13 12 11 10 9 8 7 6 5 4 3 4 4 4 4 5 6 7 7 5 2 1 1 4 8 8 8 8 8 8
13 11 12 13 16 17 18 19 19 18 17 16 15 14 12 10 9 8 7 7 5 4 2 1 1 2 3 4 5 6 5 5 2 1 2 2 4 8 9 8 8 8 8
17 15 12 12 15 17 17 17 17 17 16 15 15 14 12 11 10 9 9 7 6 4 2 2 2 3 4 5 5 5 4 4 1 1 2 2 4 7 8 8 8 8 8
19 18 16 14 16 16 13 15 14 14 15 15 15 15 13 11 9 9 8 7 5 4 3 3 3 4 4 4 4 4 4 3 2 2 2 2 4 6 8 8 8 8 8
17 18 17 15 15 15 15 14 13 12 13 13 15 15 13 9 8 8 8 7 6 5 3 2 2 3 3 2 2 3 4 4 2 2 2 2 3 5 7 7 8 8 8
17 18 18 17 16 15 13 12 13 13 14 15 15 16 15 10 7 8 7 6 6 5 4 2 1 1 2 3 4 4 4 5 4 2 2 2 2 4 6 7 8 8 8
18 19 18 19 17 16 13 10 11 14 15 16 15 16 16 13 10 8 6 6 6 6 4 3 2 1 1 2 3 4 4 5 4 2 2 2 2 3 5 6 7 8 8
19 19 19 20 18 17 15 13 13 15 16 14 15 17 17 15 13 10 6 5 6 6 5 3 2 2 2 2 3 4 4 4 3 2 1 2 2 3 4 5 6 7 8
17 18 20 18 18 18 15 13 12 15 15 14 16 16 17 16 15 11 6 5 7 6 4 2 1 1 2 2 2 3 3 3 3 2 2 2 3 3 3 4 5 7 8
19 19 20 18 20 19 16 12 12 13 13 14 15 15 16 17 16 12 7 7 8 5 3 2 2 1 0 1 2 2 3 2 2 2 3 3 3 3 3 3 4 6 8
17 19 20 19 18 16 13 9 8 9 9 12 13 14 16 16 16 13 8 8 8 4 3 2 2 2 1 1 2 3 3 3 2 2 2 3 3 3 3 3 4 5 8
14 16 19 18 17 15 13 12 11 10 9 8 9 15 16 16 15 13 7 7 6 4 5 4 3 2 1 1 2 4 4 4 3 2 2 2 3 3 4 4 5 5 6
16 17 18 19 18 18 15 12 9 8 6 7 7 11 16 16 15 13 9 6 6 5 5 4 3 3 1 2 2 2 3 4 3 3 3 2 2 4 4 6 6 6 6
14 17 18 18 17 16 13 9 7 5 4 5 7 8 10 15 15 14 12 9 7 6 6 5 5 5 3 0 1 3 2 3 3 4 3 2 2 2 3 6 7 8 8
12 13 14 15 15 14 14 14 14 10 8 8 7 7 8 13 14 14 13 11 8 6 6 6 5 4 5 3 1 1 2 3 2 3 4 3 3 3 3 5 7 9 9
9 10 11 13 13 13 15 16 15 10 7 5 6 8 8 8 11 13 13 11 8 6 7 7 5 5 4 4 3 2 1 1 2 3 4 5 4 4 4 5 6 8 9
7 8 10 12 12 13 15 15 15 13 11 10 9 10 8 6 6 9 11 10 9 7 7 7 6 7 5 4 4 4 4 3 3 4 5 5 5 4 4 4 4 6 7
Wind_Direction
168 167 156 149 142 137 133 128 123 116 111 105 102 100 98 95 91 87 83 81 78 75 73 72 72 70 69 69 69 66 63 62 62 60 58 60 61 61 59 58 54 49 52
155 162 155 151 145 141 135 129 126 121 114 109 105 102 101 98 94 91 87 83 80 78 76 74 74 73 72 71 70 68 65 66 67 64 56 49 56 61 59 55 55 53 52
148 157 154 151 147 143 138 133 129 125 119 115 111 107 105 101 98 94 91 87 84 81 79 77 76 74 74 74 72 69 68 69 71 67 53 36 40 59 59 56 54 52 50
150 153 153 152 148 145 142 138 134 129 125 122 118 113 109 105 102 98 95 92 89 85 82 80 78 76 76 74 71 68 69 70 72 67 50 35 28 55 57 54 53 51 49
149 153 156 154 152 149 145 142 138 134 130 127 123 118 114 110 106 102 99 95 92 89 86 83 80 78 76 73 70 68 68 71 72 68 54 36 21 48 55 51 48 47 45
149 154 159 157 155 153 149 146 143 140 137 134 130 126 121 116 111 107 103 100 96 92 89 85 81 78 74 70 67 65 64 64 69 66 58 40 20 35 46 44 39 38 37
151 156 161 159 157 155 153 150 148 146 143 141 138 133 128 122 118 114 109 105 100 95 90 86 81 76 70 65 60 57 59 62 65 65 60 41 26 32 33 30 23 21 20
155 158 163 162 160 158 156 155 154 152 149 146 144 140 135 131 127 123 117 112 106 98 91 85 78 70 62 55 50 47 46 46 58 70 59 21 24 26 22 18 10 5 4
156 159 163 164 163 162 161 160 159 157 154 152 150 147 143 140 137 132 128 123 116 104 94 83 75 63 51 41 33 29 26 29 42 74 137 339 12 14 10 5 359 354 350
157 161 162 163 164 164 164 164 163 162 160 158 156 153 152 151 147 144 141 138 129 116 103 84 67 49 33 15 3 1 8 19 31 73 188 283 4 2 360 356 353 348 345
167 170 167 164 164 164 165 168 166 166 166 164 162 160 158 156 158 157 162 161 157 153 145 108 34 11 353 340 337 338 352 5 30 137 212 266 351 355 354 353 350 348 348
178 179 175 171 167 167 170 170 169 169 170 168 168 168 168 171 175 179 186 186 186 192 221 270 302 326 331 328 330 334 340 350 359 234 243 285 349 354 355 356 354 352 354
180 179 180 177 173 172 172 170 171 171 171 173 175 177 178 182 190 192 194 200 206 218 247 287 314 321 325 324 330 342 350 356 333 303 294 310 352 359 2 4 4 1 1
179 184 181 179 177 178 175 175 175 174 176 180 184 185 180 180 184 187 193 202 206 212 226 258 289 305 330 350 4 8 11 14 3 339 321 325 3 7 9 13 11 9 10
184 186 183 181 180 180 177 179 181 181 184 186 189 189 185 181 183 186 192 195 202 206 206 208 255 340 1 6 14 21 10 7 3 359 354 2 27 24 27 22 19 17 15
189 188 184 184 183 180 182 183 184 186 186 187 189 191 190 187 182 178 179 187 197 197 191 179 169 102 16 8 15 13 7 6 10 20 21 40 51 58 46 33 25 17 14
193 188 186 186 184 183 185 185 185 186 185 188 191 192 190 188 182 177 173 183 194 187 176 156 117 76 48 29 10 358 3 2 11 21 57 85 86 74 58 43 29 15 11
193 188 188 186 185 186 186 184 183 184 184 187 189 190 189 187 183 174 172 186 189 173 158 136 109 79 30 13 345 338 349 351 2 25 89 111 112 88 60 41 27 12 4
195 189 187 185 185 186 184 180 179 180 183 186 186 186 188 186 182 174 177 185 175 157 152 143 114 120 68 341 322 334 346 345 350 52 87 103 110 99 65 36 21 7 356
195 189 186 185 183 181 177 171 171 175 183 184 184 186 185 185 182 176 176 177 166 149 147 138 130 105 105 324 347 354 348 346 14 63 78 87 89 83 60 32 10 353 347
187 186 185 183 180 176 178 179 180 185 185 185 185 186 185 182 180 175 172 168 164 162 167 159 138 117 63 41 42 359 349 4 29 35 40 57 55 53 38 13 353 340 336
186 185 184 183 181 182 185 183 181 172 176 182 180 185 186 182 179 179 170 168 166 159 159 159 144 133 100 77 108 70 359 343 346 2 0 18 20 25 10 352 342 331 324
186 185 185 185 182 182 173 161 144 135 136 167 185 188 188 184 181 178 175 169 168 165 171 173 161 152 159 124 119 140 145 241 299 321 334 349 345 346 333 328 324 323 321
190 184 181 180 178 176 169 172 172 178 182 186 180 182 181 182 180 180 177 173 170 168 171 175 167 158 150 166 158 136 163 165 181 301 314 315 319 305 300 308 310 312 315
177 175 176 174 175 174 175 177 180 182 177 158 161 171 178 180 180 179 177 173 171 173 175 170 162 162 161 166 172 167 149 131 164 190 273 301 309 281 275 281 287 297 307
162 165 167 170 175 175 177 178 182 178 168 164 172 180 181 179 181 181 177 176 175 174 176 175 171 169 171 169 174 173 172 178 194 191 231 268 287 285 279 270 270 281 293
Height
1535 1538 1540 1542 1544 1545 1546 1546 1547 1547 1547 1547 1547 1547 1547 1547 1547 1547 1547 1546 1546 1546 1546 1545 1545 1544 1544 1544 1544 1544 1544 1543 1543 1543 1542 1542 1542 1541 1541 1540 1540 1540 1539
1534 1537 1540 1542 1543 1545 1546 1546 1547 1547 1547 1548 1548 1548 1548 1547 1547 1547 1547 1547 1547 1547 1546 1546 1545 1545 1544 1544 1544 1545 1544 1544 1544 1543 1543 1543 1543 1542 1541 1541 1540 1540 1540
1534 1536 1539 1541 1543 1544 1546 1546 1547 1547 1547 1548 1548 1548 1548 1548 1548 1548 1548 1548 1547 1547 1547 1547 1546 1546 1545 1545 1545 1545 1545 1545 1545 1545 1544 1543 1543 1543 1542 1541 1541 1541 1540
1534 1536 1538 1541 1543 1544 1545 1546 1547 1547 1548 1548 1548 1549 1549 1549 1549 1548 1548 1548 1548 1548 1547 1547 1547 1547 1547 1546 1547 1546 1546 1546 1546 1546 1545 1545 1544 1544 1543 1543 1542 1541 1540
1534 1536 1538 1540 1542 1544 1545 1546 1547 1547 1548 1548 1549 1549 1549 1549 1549 1549 1549 1549 1549 1549 1548 1548 1548 1548 1548 1548 1548 1548 1547 1547 1547 1547 1546 1546 1545 1545 1544 1543 1543 1542 1541
1533 1536 1538 1540 1542 1543 1545 1546 1546 1547 1548 1548 1549 1549 1549 1549 1549 1549 1550 1550 1550 1550 1550 1550 1549 1549 1549 1549 1549 1549 1548 1548 1548 1547 1547 1546 1546 1546 1545 1544 1544 1543 1542
1533 1535 1537 1539 1541 1543 1544 1545 1546 1547 1547 1548 1549 1549 1549 1549 1550 1550 1550 1550 1551 1551 1551 1551 1550 1550 1550 1550 1550 1549 1549 1548 1548 1548 1547 1547 1546 1546 1546 1545 1544 1543 1543
1532 1534 1537 1539 1541 1542 1543 1545 1546 1547 1547 1548 1548 1549 1549 1550 1550 1550 1551 1551 1551 1551 1551 1551 1551 1551 1551 1550 1550 1550 1549 1549 1548 1548 1547 1547 1546 1546 1545 1544 1544 1543 1542
1532 1534 1536 1538 1540 1541 1543 1544 1545 1546 1547 1548 1548 1549 1549 1550 1550 1551 1551 1552 1552 1552 1552 1552 1552 1551 1551 1551 1550 1550 1549 1549 1548 1548 1547 1546 1546 1545 1545 1544 1543 1543 1542
1532 1533 1535 1537 1538 1540 1542 1543 1544 1545 1546 1547 1548 1549 1549 1550 1551 1551 1552 1552 1552 1552 1552 1552 1552 1552 1551 1551 1550 1550 1549 1549 1548 1547 1547 1546 1546 1545 1544 1543 1542 1541 1541
1530 1532 1534 1535 1537 1539 1540 1542 1543 1544 1546 1547 1547 1548 1549 1550 1551 1551 1552 1552 1552 1552 1552 1552 1552 1552 1551 1551 1550 1550 1549 1548 1547 1547 1546 1546 1545 1544 1543 1542 1541 1540 1539
1526 1529 1531 1533 1535 1537 1539 1540 1542 1543 1544 1545 1547 1548 1549 1549 1550 1551 1551 1552 1552 1552 1552 1552 1552 1551 1551 1551 1550 1549 1549 1548 1547 1546 1545 1545 1544 1543 1542 1541 1539 1538 1538
1522 1525 1528 1530 1533 1535 1536 1538 1540 1541 1543 1544 1546 1547 1548 1549 1550 1550 1551 1551 1552 1552 1552 1552 1551 1551 1551 1550 1549 1549 1548 1547 1546 1545 1545 1544 1543 1542 1541 1540 1538 1537 1536
1520 1522 1525 1528 1530 1532 1534 1536 1538 1540 1541 1543 1544 1546 1547 1548 1548 1549 1550 1551 1551 1551 1551 1551 1551 1550 1550 1549 1549 1548 1547 1546 1545 1544 1543 1543 1542 1541 1540 1538 1537 1536 1536
1516 1519 1522 1524 1527 1529 1531 1533 1535 1537 1539 1541 1543 1544 1545 1547 1548 1548 1549 1550 1550 1551 1550 1550 1550 1550 1549 1549 1548 1547 1546 1545 1544 1543 1542 1541 1540 1539 1538 1537 1536 1535 1535
1512 1515 1518 1520 1523 1526 1528 1530 1533 1535 1537 1539 1541 1542 1544 1545 1546 1547 1548 1549 1549 1550 1550 1549 1549 1549 1548 1548 1547 1546 1545 1544 1543 1542 1541 1540 1539 1538 1537 1536 1535 1534 1533
1508 1510 1513 1516 1519 1522 1524 1527 1530 1532 1535 1537 1539 1540 1542 1543 1545 1546 1547 1547 1548 1548 1549 1548 1548 1548 1547 1546 1546 1545 1543 1542 1541 1540 1539 1539 1538 1537 1536 1535 1534 1533 1532
1503 1506 1509 1512 1515 1517 1520 1524 1527 1529 1532 1534 1536 1538 1540 1542 1543 1544 1545 1546 1547 1547 1547 1547 1547 1547 1546 1545 1544 1543 1542 1541 1540 1539 1538 1537 1537 1536 1535 1534 1533 1531 1530
1498 1501 1504 1506 1510 1513 1517 1520 1523 1526 1529 1532 1534 1536 1538 1539 1541 1542 1543 1544 1545 1545 1546 1546 1546 1545 1545 1544 1543 1542 1540 1539 1538 1538 1537 1536 1536 1535 1534 1532 1531 1530 1528
1493 1496 1498 1502 1505 1509 1513 1517 1520 1523 1526 1528 1531 1533 1535 1537 1539 1540 1541 1542 1543 1544 1544 1544 1544 1543 1543 1542 1541 1540 1539 1538 1537 1537 1536 1535 1534 1533 1532 1531 1529 1528 1526
1487 1490 1493 1496 1500 1504 1508 1511 1514 1517 1521 1524 1527 1530 1532 1534 1536 1537 1539 1540 1541 1541 1542 1542 1542 1541 1541 1540 1540 1539 1538 1537 1536 1535 1535 1534 1533 1532 1530 1529 1527 1525 1523
1480 1483 1487 1491 1495 1498 1502 1506 1510 1514 1517 1521 1524 1526 1529 1531 1533 1534 1536 1537 1538 1539 1539 1540 1540 1539 1539 1538 1538 1537 1536 1536 1534 1534 1533 1532 1531 1530 1528 1527 1525 1522 1520
1474 1478 1481 1485 1489 1494 1498 1502 1507 1511 1515 1517 1519 1522 1525 1527 1530 1531 1533 1534 1535 1536 1537 1537 1537 1537 1537 1536 1536 1536 1534 1533 1532 1531 1530 1529 1528 1527 1526 1524 1522 1520 1517
1469 1473 1477 1481 1485 1489 1493 1497 1500 1503 1506 1509 1514 1518 1521 1524 1526 1528 1530 1531 1532 1533 1534 1534 1534 1534 1534 1534 1533 1533 1532 1531 1530 1528 1527 1526 1525 1524 1522 1520 1518 1516 1514
1465 1469 1473 1477 1481 1485 1488 1492 1496 1499 1503 1507 1511 1514 1517 1520 1522 1524 1526 1528 1529 1530 1531 1531 1531 1532 1531 1531 1530 1530 1529 1528 1527 1526 1523 1522 1521 1520 1518 1516 1514 1512 1510
1461 1465 1469 1472 1476 1480 1484 1487 1491 1495 1499 1502 1506 1510 1513 1516 1518 1520 1522 1524 1525 1526 1527 1528 1528 1528 1528 1528 1527 1526 1526 1525 1523 1522 1520 1517 1516 1514 1513 1512 1510 1508 1505